TimeCST,TemperatureF,Dew PointF,Humidity,Sea Level PressureIn,VisibilityMPH,Wind Direction,Wind SpeedMPH,Gust SpeedMPH,PrecipitationIn,Events,Conditions,WindDirDegrees,DateUTC
12:15 AM,26.6,19.4,74,30.18,10.0,Calm,Calm,-,N/A,,Clear,0,2013-02-12 06:15:00
12:35 AM,26.6,21.2,80,30.17,10.0,Calm,Calm,-,N/A,,Clear,0,2013-02-12 06:35:00
12:55 AM,26.6,19.4,74,30.18,10.0,Calm,Calm,-,N/A,,Clear,0,2013-02-12 06:55:00
1:15 AM,26.6,21.2,80,30.17,10.0,Calm,Calm,-,N/A,,Clear,0,2013-02-12 07:15:00
1:35 AM,26.6,19.4,74,30.18,10.0,Calm,Calm,-,N/A,,Clear,0,2013-02-12 07:35:00
1:55 AM,26.6,21.2,80,30.19,10.0,Calm,Calm,-,N/A,,Clear,0,2013-02-12 07:55:00
2:15 AM,24.8,19.4,80,30.18,10.0,Calm,Calm,-,N/A,,Clear,0,2013-02-12 08:15:00
2:35 AM,24.8,19.4,80,30.18,10.0,Calm,Calm,-,N/A,,Clear,0,2013-02-12 08:35:00
2:55 AM,26.6,21.2,80,30.17,10.0,Calm,Calm,-,N/A,,Clear,0,2013-02-12 08:55:00
3:15 AM,24.8,21.2,86,30.15,10.0,Calm,Calm,-,N/A,,Clear,0,2013-02-12 09:15:00
3:35 AM,24.8,19.4,80,30.15,10.0,Calm,Calm,-,N/A,,Clear,0,2013-02-12 09:35:00
3:55 AM,24.8,21.2,86,30.15,10.0,Calm,Calm,-,N/A,,Clear,0,2013-02-12 09:55:00
4:15 AM,24.8,19.4,80,30.16,10.0,Calm,Calm,-,N/A,,Clear,0,2013-02-12 10:15:00
4:35 AM,24.8,21.2,86,30.15,10.0,Calm,Calm,-,N/A,,Clear,0,2013-02-12 10:35:00
4:55 AM,24.8,19.4,80,30.15,10.0,Calm,Calm,-,N/A,,Clear,0,2013-02-12 10:55:00
5:15 AM,23.0,19.4,86,30.15,10.0,Calm,Calm,-,N/A,,Clear,0,2013-02-12 11:15:00
5:35 AM,23.0,19.4,86,30.13,10.0,NE,4.6,-,N/A,,Clear,40,2013-02-12 11:35:00
5:55 AM,24.8,19.4,80,30.14,10.0,Calm,Calm,-,N/A,,Clear,0,2013-02-12 11:55:00
6:15 AM,23.0,19.4,86,30.14,10.0,Calm,Calm,-,N/A,,Clear,0,2013-02-12 12:15:00
6:35 AM,21.2,17.6,86,30.14,10.0,North,3.5,-,N/A,,Clear,10,2013-02-12 12:35:00
6:55 AM,24.8,21.2,86,30.15,10.0,Calm,Calm,-,N/A,,Clear,0,2013-02-12 12:55:00
7:15 AM,24.8,17.6,74,30.17,10.0,South,3.5,-,N/A,,Clear,190,2013-02-12 13:15:00
7:35 AM,23.0,19.4,86,30.15,10.0,Calm,Calm,-,N/A,,Clear,0,2013-02-12 13:35:00
7:55 AM,24.8,21.2,86,30.15,10.0,Calm,Calm,-,N/A,,Clear,0,2013-02-12 13:55:00
8:15 AM,26.6,21.2,80,30.16,10.0,Calm,Calm,-,N/A,,Clear,0,2013-02-12 14:15:00
8:35 AM,28.4,23.0,80,30.17,10.0,Calm,Calm,-,N/A,,Clear,0,2013-02-12 14:35:00
8:55 AM,28.4,24.8,86,30.14,10.0,ENE,4.6,-,N/A,,Clear,60,2013-02-12 14:55:00
9:15 AM,30.2,24.8,80,30.13,10.0,ESE,3.5,-,N/A,,Clear,110,2013-02-12 15:15:00
9:35 AM,32.0,24.8,75,30.12,10.0,ESE,3.5,-,N/A,,Clear,120,2013-02-12 15:35:00
9:55 AM,33.8,26.6,75,30.12,10.0,ESE,3.5,-,N/A,,Clear,120,2013-02-12 15:55:00
10:15 AM,35.6,26.6,70,30.13,10.0,South,3.5,-,N/A,,Clear,180,2013-02-12 16:15:00
10:35 AM,35.6,26.6,70,30.12,10.0,ESE,3.5,-,N/A,,Clear,120,2013-02-12 16:35:00
10:55 AM,39.2,26.6,61,30.12,10.0,Calm,Calm,-,N/A,,Clear,0,2013-02-12 16:55:00
11:15 AM,41.0,26.6,57,30.11,10.0,East,5.8,-,N/A,,Clear,100,2013-02-12 17:15:00
11:35 AM,41.0,26.6,57,30.12,10.0,East,4.6,-,N/A,,Clear,100,2013-02-12 17:35:00
11:55 AM,42.8,24.8,49,30.12,10.0,Calm,Calm,-,N/A,,Clear,0,2013-02-12 17:55:00
12:15 PM,42.8,24.8,49,30.11,10.0,ESE,5.8,-,N/A,,Clear,110,2013-02-12 18:15:00
12:35 PM,42.8,24.8,49,30.10,10.0,Calm,Calm,-,N/A,,Clear,0,2013-02-12 18:35:00
12:55 PM,42.8,24.8,49,30.08,10.0,NE,4.6,-,N/A,,Partly Cloudy,50,2013-02-12 18:55:00
1:15 PM,44.6,24.8,46,30.07,10.0,Calm,Calm,-,N/A,,Scattered Clouds,0,2013-02-12 19:15:00
1:35 PM,42.8,24.8,49,30.06,10.0,Calm,Calm,-,N/A,,Partly Cloudy,0,2013-02-12 19:35:00
1:55 PM,44.6,24.8,46,30.06,10.0,Calm,Calm,-,N/A,,Mostly Cloudy,0,2013-02-12 19:55:00
2:15 PM,44.6,26.6,49,30.05,10.0,ENE,5.8,-,N/A,,Overcast,60,2013-02-12 20:15:00
2:35 PM,44.6,24.8,46,30.04,10.0,NE,5.8,-,N/A,,Overcast,50,2013-02-12 20:35:00
2:55 PM,44.6,24.8,46,30.03,10.0,East,4.6,-,N/A,,Overcast,80,2013-02-12 20:55:00
3:15 PM,44.6,26.6,49,30.03,10.0,NE,5.8,-,N/A,,Overcast,40,2013-02-12 21:15:00
3:35 PM,42.8,26.6,53,30.02,10.0,ENE,6.9,-,N/A,,Overcast,70,2013-02-12 21:35:00
3:55 PM,42.8,26.6,53,30.02,10.0,ENE,5.8,-,N/A,,Overcast,70,2013-02-12 21:55:00
4:15 PM,42.8,26.6,53,30.01,10.0,NE,6.9,-,N/A,,Overcast,40,2013-02-12 22:15:00
4:35 PM,42.8,26.6,53,30.00,10.0,North,6.9,-,N/A,,Overcast,10,2013-02-12 22:35:00
4:55 PM,42.8,26.6,53,30.00,10.0,NNE,4.6,-,N/A,,Overcast,20,2013-02-12 22:55:00
5:15 PM,41.0,26.6,57,30.00,10.0,NNE,4.6,-,N/A,,Overcast,30,2013-02-12 23:15:00
5:35 PM,41.0,26.6,57,29.99,10.0,North,5.8,-,N/A,,Overcast,10,2013-02-12 23:35:00
5:55 PM,41.0,26.6,57,29.99,10.0,NNE,3.5,-,N/A,,Overcast,30,2013-02-12 23:55:00
6:15 PM,39.2,26.6,61,29.99,10.0,Calm,Calm,-,N/A,,Overcast,0,2013-02-13 00:15:00
6:35 PM,39.2,26.6,61,30.00,10.0,South,3.5,-,N/A,,Overcast,170,2013-02-13 00:35:00
6:55 PM,41.0,26.6,57,29.99,10.0,Calm,Calm,-,N/A,,Overcast,0,2013-02-13 00:55:00
7:15 PM,39.2,26.6,61,29.99,10.0,Calm,Calm,-,N/A,,Overcast,0,2013-02-13 01:15:00
7:35 PM,39.2,26.6,61,29.98,10.0,Calm,Calm,-,N/A,,Overcast,0,2013-02-13 01:35:00
7:55 PM,39.2,26.6,61,29.98,10.0,South,5.8,-,N/A,,Overcast,180,2013-02-13 01:55:00
8:15 PM,39.2,28.4,65,29.99,10.0,SW,5.8,-,N/A,,Overcast,230,2013-02-13 02:15:00
8:35 PM,39.2,30.2,70,29.98,10.0,SSW,6.9,-,N/A,,Overcast,210,2013-02-13 02:35:00
8:55 PM,37.4,30.2,75,29.98,10.0,South,10.4,-,N/A,,Overcast,170,2013-02-13 02:55:00
9:15 PM,37.4,30.2,75,29.98,10.0,West,3.5,-,N/A,,Overcast,260,2013-02-13 03:15:00
9:35 PM,37.4,30.2,75,30.00,10.0,West,6.9,-,N/A,,Overcast,260,2013-02-13 03:35:00
9:55 PM,37.4,30.2,75,30.00,10.0,West,3.5,-,N/A,,Overcast,280,2013-02-13 03:55:00
10:15 PM,37.4,30.2,75,30.00,10.0,SW,4.6,-,N/A,,Overcast,230,2013-02-13 04:15:00
10:35 PM,37.4,30.2,75,30.00,10.0,West,5.8,-,N/A,,Overcast,260,2013-02-13 04:35:00
10:55 PM,37.4,30.2,75,30.01,10.0,WSW,5.8,-,N/A,,Overcast,250,2013-02-13 04:55:00
11:15 PM,37.4,30.2,75,30.00,10.0,WSW,5.8,-,N/A,,Overcast,240,2013-02-13 05:15:00
11:35 PM,35.6,30.2,81,30.00,10.0,SW,4.6,-,N/A,,Overcast,230,2013-02-13 05:35:00
11:55 PM,35.6,32.0,87,29.99,10.0,WSW,4.6,-,N/A,,Overcast,240,2013-02-13 05:55:00